Flag for U.S.A. Weather past 2 weeks in Fairbanks, Alaska, U.S.A.

Now
66 °F

Passing clouds.


Feels Like: 66 °F
Forecast: 54 / 77 °F
Wind: 5 mph from East

Location: Wainwright U. S. Army Airfield

Current Time: May 26, 2015 at 10:45:42 PM

Latest Report: May 26, 2015 at 9:56 PM


Visibility: 10 mi

Pressure: 30.00 "Hg

Humidity: 45%

Dew point: 44 °F

Location of FairbanksLocation

Historic Weather in Fairbanks — Graph

°F

Fairbanks temperature yesterday

Maximum temperature yesterday: 68 °F (at 9:56 PM)
Minimum temperature yesterday: 54 °F (at 5:56 AM)
Average temperature yesterday: 60 °F

Past Weeks' High & Low Weather Summary

 TemperatureHumidityPressure
High86 °F (May 23, 4:56 PM)83% (May 26, 2:56 AM)30.16 "Hg (May 26, 2:56 AM)
Low38 °F (May 17, 4:56 AM)8% (May 23, 4:56 PM)29.61 "Hg (May 14, 6:55 PM)
Average62 °F40%29.92 "Hg
* Reported May 11 9:56 PM — May 26 9:56 PM, Fairbanks, Weather by CustomWeather, © 2015

Note: Actual official high and low records may vary slightly from our data, if they occured in-between our weather recording intervals... More about our weather records

Advertising

Fairbanks weather history for previous 24 hours

 ConditionsComfort  
Time TempWeatherWind HumidityBarometerVisibility
9:56 PM
Tue, May 26
66 °FPassing clouds.5 mph45%30.00 "Hg10 mi
8:55 PM70 °FMostly cloudy.10 mph38%29.96 "Hg7 mi
7:55 PM72 °FMostly cloudy.12 mph36%29.96 "Hg7 mi
6:55 PM73 °FScattered showers. Broken clouds.10 mph33%29.96 "Hg7 mi
5:55 PM73 °FSprinkles. Partly sunny.8 mph31%29.96 "Hg7 mi
4:55 PM75 °FScattered showers. Partly sunny.12 mph27%29.96 "Hg7 mi
3:55 PM73 °FScattered showers. Partly sunny.9 mph29%29.98 "Hg7 mi
2:55 PM73 °FScattered showers. Partly sunny.14 mph31%29.99 "Hg7 mi
1:55 PM72 °FSprinkles. Partly sunny.8 mph33%30.00 "Hg7 mi
12:55 PM70 °FBroken clouds.3 mph38%30.01 "Hg25 mi
11:55 AM66 °FBroken clouds.No wind49%30.03 "Hg25 mi
10:55 AM63 °FBroken clouds.3 mph52%30.04 "Hg25 mi
9:55 AM61 °FPartly sunny.No wind55%30.06 "Hg25 mi
8:55 AM57 °FBroken clouds.5 mph63%30.06 "Hg25 mi
7:55 AM57 °FBroken clouds.3 mph63%30.07 "Hg25 mi
6:55 AM55 °FBroken clouds.3 mph67%30.07 "Hg25 mi
5:56 AM54 °FOvercast.7 mph69%30.06 "Hg10 mi
4:56 AM53 °FMore clouds than sun.No wind72%30.06 "Hg10 mi
3:56 AM53 °FMostly cloudy.8 mph72%30.06 "Hg10 mi
2:56 AM50 °FPassing clouds.3 mph83%30.05 "Hg10 mi
1:56 AM56 °FPassing clouds.No wind65%30.05 "Hg10 mi
12:56 AM56 °FPartly cloudy.No wind75%30.04 "Hg10 mi
11:56 PM
Mon, May 25
62 °FOvercast.No wind58%30.03 "Hg10 mi
10:56 PM67 °FOvercast.No wind41%30.01 "Hg10 mi
Weather by CustomWeather, © 2015

See weather overviewHow to use our weather pages